Flag for Germany Weather past 2 weeks in Langen, Hesse, Germany

Now
84 °F

Passing clouds.


Feels Like: 83 °F
Forecast: 65 / 75 °F
Wind: 5 mph from East

Location: Frankfurt-M-Flughafen Airport

Current Time: Jul 28, 2014 at 3:39:53 PM

Latest Report: Jul 28, 2014 at 3:20 PM


Visibility: N/A

Pressure: 29.80 "Hg

Humidity: 37%

Dew point: 55 °F

Location of LangenLocation

Historic Weather in Langen — Graph

°F

Langen temperature yesterday

Maximum temperature yesterday: 84 °F (at 3:50 PM)
Minimum temperature yesterday: 64 °F (at 4:20 AM)
Average temperature yesterday: 74 °F

Past Weeks' High & Low Weather Summary

 TemperatureHumidityPressure
High93 °F (Jul 19, 4:20 PM)100% (Jul 17, 4:50 AM)30.18 "Hg (Jul 17, 4:50 AM)
Low59 °F (Jul 17, 4:50 AM)23% (Jul 18, 6:20 PM)29.77 "Hg (Jul 13, 4:20 PM)
Average73 °F66%29.97 "Hg
* Reported Jul 13 2:20 PM — Jul 28 2:20 PM, Langen, Weather by CustomWeather, © 2014

Note: Actual official high and low records may vary slightly from our data, if they occured in-between our weather recording intervals... More about our weather records

Advertising

Langen weather history for previous 24 hours

 ConditionsComfort  
Time TempWeatherWind HumidityBarometerVisibility
2:20 PM
Jul 28
82 °FPassing clouds.5 mph42%29.83 "HgN/A
1:50 PM82 °FScattered clouds.2 mph45%29.83 "HgN/A
1:20 PM81 °FScattered clouds.3 mph48%29.86 "HgN/A
12:50 PM81 °FPartly sunny.5 mph48%29.86 "HgN/A
12:20 PM79 °FScattered clouds.5 mph54%29.86 "HgN/A
11:50 AM79 °FScattered clouds.1 mph58%29.86 "HgN/A
11:20 AM77 °FScattered clouds.5 mph65%29.89 "HgN/A
10:50 AM75 °FSunny.2 mph69%29.89 "Hg10 mi
10:20 AM75 °FSunny.3 mph69%29.89 "Hg10 mi
9:50 AM73 °FSunny.1 mph74%29.89 "Hg10 mi
9:20 AM70 °FSunny.2 mph83%29.92 "Hg10 mi
8:50 AM70 °FSunny.3 mph78%29.92 "Hg10 mi
8:20 AM68 °FSunny.3 mph83%29.92 "Hg10 mi
7:50 AM68 °FSunny.3 mph83%29.92 "Hg10 mi
7:20 AM66 °FSunny.5 mph88%29.92 "Hg10 mi
6:50 AM66 °FPassing clouds.3 mph88%29.92 "Hg5 mi
6:20 AM64 °FPassing clouds.3 mph94%29.92 "Hg5 mi
5:50 AM64 °FPassing clouds.2 mph94%29.92 "Hg6 mi
5:20 AM66 °FLight fog.2 mph94%29.92 "HgN/A
4:20 AM66 °FClear.2 mph88%29.92 "Hg10 mi
3:50 AM66 °FClear.3 mph94%29.92 "Hg10 mi
3:20 AM66 °FClear.2 mph94%29.92 "Hg10 mi
2:50 AM66 °FClear.3 mph88%29.92 "Hg10 mi
2:20 AM66 °FClear.2 mph88%29.95 "Hg10 mi
1:50 AM66 °FClear.1 mph88%29.95 "Hg10 mi
1:20 AM68 °FClear.1 mph83%29.95 "Hg10 mi
12:50 AM70 °FClear.No wind78%29.95 "Hg10 mi
12:20 AM70 °FClear.3 mph78%29.95 "Hg10 mi
11:50 PM
Jul 27
72 °FClear.3 mph69%29.95 "Hg10 mi
11:20 PM72 °FClear.3 mph69%29.95 "Hg10 mi
10:50 PM73 °FClear.2 mph61%29.95 "Hg10 mi
10:20 PM75 °FPartly cloudy.5 mph57%29.95 "HgN/A
9:50 PM75 °FBroken clouds.3 mph57%29.98 "HgN/A
9:20 PM77 °FBroken clouds.8 mph54%29.95 "HgN/A
8:50 PM77 °FBroken clouds.7 mph54%29.95 "HgN/A
8:20 PM79 °FSunny.7 mph51%29.95 "Hg10 mi
7:50 PM81 °FScattered clouds.8 mph48%29.95 "HgN/A
7:20 PM81 °FScattered clouds.9 mph48%29.95 "HgN/A
6:50 PM82 °FSunny.8 mph45%29.95 "Hg10 mi
6:20 PM82 °FSunny.9 mph45%29.92 "Hg10 mi
5:50 PM82 °FSunny.9 mph42%29.92 "Hg10 mi
5:20 PM82 °FPassing clouds.7 mph45%29.95 "HgN/A
4:50 PM82 °FPassing clouds.8 mph45%29.95 "HgN/A
4:20 PM82 °FSunny.8 mph45%29.95 "Hg10 mi
3:50 PM84 °FSunny.9 mph43%29.95 "Hg10 mi
3:20 PM82 °FPassing clouds.6 mph45%29.95 "HgN/A
Weather by CustomWeather, © 2014

See weather overviewHow to use our weather pages